This is the latest recevied weather packets stored in our database for station/object DB0OVP-13. If no packets are shown the sender has not sent any weather packets the latest 1 day(s).
| Time | Temp. | Humidity | Pressure | Rain* | Wind** | Luminosity | Snow |
|---|---|---|---|---|---|---|---|
| 1778003158 | 11.67° C | 100% | 0 hPa | 0 mm | 0.45 m/s, 59° | - | - |
| 1778002258 | 11.11° C | 100% | 0 hPa | 0 mm | 0.45 m/s, 60° | - | - |
| 1778001358 | 11.11° C | 100% | 0 hPa | 0 mm | 1.79 m/s, 74° | - | - |
| 1778000458 | 11.11° C | 100% | 0 hPa | 0 mm | 0.45 m/s, 14° | - | - |
| 1777999558 | 11.67° C | 100% | 0 hPa | 0 mm | 0.89 m/s, 87° | - | - |
| 1777998658 | 11.67° C | 100% | 0 hPa | 0 mm | 0.89 m/s, 81° | - | - |
| 1777997758 | 11.67° C | 100% | 0 hPa | 0 mm | 0 m/s | - | - |
| 1777996858 | 12.22° C | 100% | 0 hPa | 0 mm | 0.89 m/s, 82° | - | - |
| 1777995958 | 11.67° C | 100% | 0 hPa | 0 mm | 1.79 m/s, 85° | - | - |
| 1777995058 | 11.67° C | 100% | 0 hPa | 0 mm | 0.89 m/s, 95° | - | - |
| 1777994158 | 11.67° C | 100% | 0 hPa | 0.25 mm | 0.89 m/s, 68° | - | - |
| 1777993258 | 11.67° C | 100% | 0 hPa | 0.25 mm | 2.24 m/s, 81° | - | - |
| 1777992358 | 11.11° C | 100% | 0 hPa | 0.25 mm | 1.79 m/s, 172° | - | - |
| 1777991458 | 11.67° C | 100% | 0 hPa | 0.25 mm | 0.45 m/s, 75° | - | - |
| 1777990558 | 11.67° C | 100% | 0 hPa | 0 mm | 2.24 m/s, 80° | - | - |
| 1777989658 | 11.67° C | 100% | 0 hPa | 0 mm | 0.45 m/s, 147° | - | - |
| 1777988759 | 11.67° C | 100% | 0 hPa | 0.25 mm | 1.79 m/s, 61° | - | - |
| 1777987859 | 11.67° C | 100% | 0 hPa | 0.25 mm | 2.24 m/s, 60° | - | - |
| 1777986959 | 11.67° C | 100% | 0 hPa | 0.51 mm | 1.34 m/s, 142° | - | - |
| 1777986059 | 11.67° C | 100% | 0 hPa | 0.76 mm | 0.89 m/s, 35° | - | - |
| 1777985159 | 11.11° C | 100% | 0 hPa | 0.76 mm | 0.89 m/s, 113° | - | - |
| 1777984259 | 11.11° C | 100% | 0 hPa | 1.02 mm | 0.45 m/s, 39° | - | - |
| 1777983359 | 11.11° C | 100% | 0 hPa | 1.02 mm | 2.68 m/s, 67° | - | - |
| 1777982459 | 11.11° C | 100% | 0 hPa | 0.76 mm | 0.89 m/s, 53° | - | - |
| 1777981559 | 11.11° C | 100% | 0 hPa | 0.76 mm | 0.89 m/s, 95° | - | - |
* Rain latest hour (hover to see other rain measurements)
** Current wind speed in m/s (hover to see current wind gust speed)